PAL305 RPLL-RPVM

Flight info

Callsign PAL305
Flight time 0h 53m
Altitude 35000
Route IPATA2R IPATA W25 BATAY BATAY3P
Aircraft B77W/H-SDE3FGHIM3RWXY/LB1

Departure

Time 2026-05-04 01:04
Airport Ninoy Aquino International Airport (RPLL)

Arrival

Time 2026-05-04 01:57
Airport Mactan Cebu International Airport (RPVM)
Time Latitude Longitude Altitude Speed Heading
2026-05-04 00:39 14.50339 121.00433 85 ft 0 kts 18°
2026-05-04 00:53 14.50332 121.00429 85 ft 2 kts 21°
2026-05-04 00:53 14.50318 121.00424 85 ft 2 kts 22°
2026-05-04 00:53 14.50304 121.00418 85 ft 2 kts 21°
2026-05-04 00:53 14.50290 121.00413 85 ft 2 kts 21°
2026-05-04 00:54 14.50281 121.00409 85 ft 2 kts 17°
2026-05-04 00:54 14.50266 121.00410 85 ft 2 kts 323°
2026-05-04 00:54 14.50259 121.00422 85 ft 2 kts 278°
2026-05-04 00:54 14.50260 121.00435 85 ft 0 kts 243°
2026-05-04 00:55 14.50263 121.00440 85 ft 1 kts 239°
2026-05-04 00:55 14.50263 121.00441 85 ft 0 kts 239°
2026-05-04 00:58 14.50260 121.00435 85 ft 2 kts 240°
2026-05-04 00:58 14.50250 121.00417 85 ft 3 kts 240°
2026-05-04 00:58 14.50236 121.00390 85 ft 4 kts 241°
2026-05-04 00:58 14.50219 121.00358 85 ft 5 kts 240°
2026-05-04 00:59 14.50196 121.00333 85 ft 3 kts 206°
2026-05-04 00:59 14.50177 121.00333 85 ft 2 kts 168°
2026-05-04 00:59 14.50150 121.00337 85 ft 5 kts 183°
2026-05-04 00:59 14.50115 121.00315 85 ft 7 kts 230°
2026-05-04 01:00 14.50082 121.00262 85 ft 9 kts 240°
2026-05-04 01:00 14.50048 121.00201 85 ft 9 kts 240°
2026-05-04 01:00 14.50016 121.00143 85 ft 8 kts 240°
2026-05-04 01:00 14.49987 121.00090 85 ft 7 kts 240°
2026-05-04 01:01 14.49961 121.00043 85 ft 7 kts 241°
2026-05-04 01:01 14.49937 121.00000 85 ft 6 kts 238°
2026-05-04 01:01 14.49908 120.99970 85 ft 5 kts 205°
2026-05-04 01:01 14.49878 120.99968 85 ft 3 kts 165°
2026-05-04 01:02 14.49851 120.99980 85 ft 4 kts 151°
2026-05-04 01:02 14.49823 120.99998 85 ft 4 kts 143°
2026-05-04 01:02 14.49804 121.00023 85 ft 3 kts 108°
2026-05-04 01:02 14.49804 121.00043 85 ft 2 kts 77°
2026-05-04 01:03 14.49812 121.00060 85 ft 3 kts 62°
2026-05-04 01:03 14.49830 121.00095 85 ft 11 kts 62°
2026-05-04 01:03 14.49948 121.00307 85 ft 59 kts 60°
2026-05-04 01:03 14.50244 121.00839 85 ft 108 kts 61°
2026-05-04 01:04 14.50682 121.01630 86 ft 147 kts 60°
2026-05-04 01:04 14.51205 121.02586 329 ft 160 kts 60°
2026-05-04 01:04 14.51781 121.03632 722 ft 169 kts 63°
2026-05-04 01:04 14.52354 121.04677 1136 ft 164 kts 60°
2026-05-04 01:05 14.52965 121.05746 1182 ft 185 kts 61°
2026-05-04 01:05 14.53663 121.06992 1338 ft 214 kts 60°
2026-05-04 01:05 14.54460 121.08420 1601 ft 242 kts 60°
2026-05-04 01:05 14.55311 121.09951 2254 ft 252 kts 60°
2026-05-04 01:06 14.56181 121.11519 3138 ft 253 kts 61°
2026-05-04 01:06 14.57006 121.13115 3944 ft 256 kts 71°
2026-05-04 01:06 14.57336 121.14900 4720 ft 260 kts 82°
2026-05-04 01:06 14.57569 121.16758 5506 ft 264 kts 81°
2026-05-04 01:07 14.57802 121.18634 6349 ft 266 kts 82°
2026-05-04 01:07 14.58030 121.20538 7120 ft 271 kts 82°
2026-05-04 01:07 14.58256 121.22454 7933 ft 272 kts 82°
2026-05-04 01:07 14.58412 121.24412 8641 ft 279 kts 92°
2026-05-04 01:08 14.57857 121.26311 9365 ft 287 kts 119°
2026-05-04 01:08 14.56482 121.27810 10110 ft 295 kts 141°
2026-05-04 01:08 14.54731 121.29062 10469 ft 316 kts 141°
2026-05-04 01:08 14.52866 121.30469 10530 ft 347 kts 141°
2026-05-04 01:09 14.50845 121.32004 10750 ft 374 kts 141°
2026-05-04 01:09 14.48754 121.33601 11676 ft 378 kts 141°
2026-05-04 01:09 14.46616 121.35240 12585 ft 383 kts 141°
2026-05-04 01:09 14.44477 121.36884 13455 ft 389 kts 141°
2026-05-04 01:10 14.42301 121.38556 14359 ft 393 kts 141°
2026-05-04 01:10 14.40113 121.40238 15268 ft 396 kts 141°
2026-05-04 01:10 14.37895 121.41945 16128 ft 401 kts 141°
2026-05-04 01:10 14.35679 121.43649 16986 ft 406 kts 142°
2026-05-04 01:11 14.33388 121.45411 17861 ft 410 kts 142°
2026-05-04 01:11 14.31104 121.47169 18648 ft 416 kts 142°
2026-05-04 01:11 14.28764 121.48966 19523 ft 420 kts 142°
2026-05-04 01:11 14.26437 121.50754 20328 ft 423 kts 142°
2026-05-04 01:12 14.24077 121.52569 21075 ft 427 kts 142°
2026-05-04 01:12 14.21671 121.54417 21742 ft 432 kts 142°
2026-05-04 01:12 14.19246 121.56280 22341 ft 438 kts 142°
2026-05-04 01:12 14.16785 121.58168 22956 ft 443 kts 142°
2026-05-04 01:13 14.14311 121.60067 23529 ft 448 kts 143°
2026-05-04 01:13 14.11782 121.62007 24085 ft 452 kts 143°
2026-05-04 01:13 14.09268 121.63936 24630 ft 457 kts 143°
2026-05-04 01:13 14.06693 121.65910 25076 ft 463 kts 143°
2026-05-04 01:14 14.04088 121.67908 25598 ft 466 kts 143°
2026-05-04 01:14 14.01494 121.69895 26135 ft 469 kts 143°
2026-05-04 01:14 13.98866 121.71909 26507 ft 475 kts 143°
2026-05-04 01:14 13.96213 121.73941 27018 ft 477 kts 143°
2026-05-04 01:15 13.93546 121.75983 27407 ft 481 kts 143°
2026-05-04 01:15 13.90852 121.78046 27730 ft 486 kts 143°
2026-05-04 01:15 13.88102 121.80151 28104 ft 490 kts 143°
2026-05-04 01:15 13.85357 121.82243 28516 ft 492 kts 143°
2026-05-04 01:16 13.82584 121.84334 29066 ft 491 kts 143°
2026-05-04 01:16 13.79863 121.86389 29602 ft 490 kts 144°
2026-05-04 01:16 13.77099 121.88474 30199 ft 487 kts 144°
2026-05-04 01:16 13.74373 121.90532 30724 ft 486 kts 144°
2026-05-04 01:17 13.71670 121.92571 31369 ft 481 kts 144°
2026-05-04 01:17 13.68973 121.94606 31936 ft 479 kts 144°
2026-05-04 01:17 13.66298 121.96622 32442 ft 477 kts 144°
2026-05-04 01:17 13.63633 121.98632 32984 ft 475 kts 144°
2026-05-04 01:18 13.60972 122.00636 33447 ft 475 kts 144°
2026-05-04 01:18 13.58294 122.02653 33934 ft 474 kts 144°
2026-05-04 01:18 13.55624 122.04665 34386 ft 474 kts 144°
2026-05-04 01:18 13.52995 122.06644 34851 ft 473 kts 144°
2026-05-04 01:19 13.50325 122.08654 34966 ft 470 kts 144°
2026-05-04 01:19 13.45064 122.12611 34970 ft 469 kts 144°
2026-05-04 01:20 13.39788 122.16578 34974 ft 472 kts 144°
2026-05-04 01:20 13.34485 122.20563 34969 ft 471 kts 144°
2026-05-04 01:21 13.29212 122.24523 34958 ft 469 kts 144°
2026-05-04 01:21 13.23933 122.28486 34953 ft 470 kts 144°
2026-05-04 01:22 13.18654 122.32446 34947 ft 470 kts 144°
2026-05-04 01:22 13.13391 122.36392 34955 ft 469 kts 144°
2026-05-04 01:23 13.08118 122.40344 34961 ft 470 kts 144°
2026-05-04 01:23 13.02834 122.44301 34962 ft 469 kts 144°
2026-05-04 01:24 12.97551 122.48256 34962 ft 469 kts 144°
2026-05-04 01:24 12.92280 122.52200 34959 ft 468 kts 144°
2026-05-04 01:25 12.86997 122.56151 34961 ft 468 kts 144°
2026-05-04 01:25 12.81734 122.60084 34958 ft 468 kts 144°
2026-05-04 01:26 12.76493 122.63998 34956 ft 468 kts 144°
2026-05-04 01:26 12.71231 122.67927 34948 ft 467 kts 144°
2026-05-04 01:27 12.65976 122.71848 34950 ft 467 kts 144°
2026-05-04 01:27 12.60709 122.75777 34949 ft 467 kts 144°
2026-05-04 01:28 12.55479 122.79676 34950 ft 466 kts 144°
2026-05-04 01:28 12.50222 122.83592 34950 ft 466 kts 144°
2026-05-04 01:29 12.44998 122.87483 34951 ft 466 kts 144°
2026-05-04 01:29 12.39736 122.91398 34949 ft 467 kts 144°
2026-05-04 01:30 12.34459 122.95324 34952 ft 466 kts 144°
2026-05-04 01:30 12.29228 122.99213 34952 ft 466 kts 144°
2026-05-04 01:31 12.23981 123.03113 34952 ft 467 kts 144°
2026-05-04 01:31 12.18711 123.07027 34953 ft 467 kts 144°
2026-05-04 01:32 12.13463 123.10922 34955 ft 466 kts 144°
2026-05-04 01:32 12.08235 123.14803 34955 ft 466 kts 144°
2026-05-04 01:33 12.02981 123.18699 34953 ft 466 kts 144°
2026-05-04 01:33 11.97729 123.22592 34953 ft 466 kts 144°
2026-05-04 01:34 11.92504 123.26464 34953 ft 465 kts 144°
2026-05-04 01:34 11.87240 123.30362 34954 ft 465 kts 144°
2026-05-04 01:35 11.81974 123.34260 34950 ft 466 kts 144°
2026-05-04 01:35 11.76723 123.38145 34948 ft 466 kts 144°
2026-05-04 01:36 11.71492 123.42013 34947 ft 466 kts 144°
2026-05-04 01:36 11.66243 123.45893 34947 ft 465 kts 144°
2026-05-04 01:37 11.61001 123.49766 34943 ft 465 kts 144°
2026-05-04 01:37 11.55742 123.53650 34942 ft 465 kts 144°
2026-05-04 01:38 11.50508 123.57513 34944 ft 465 kts 144°
2026-05-04 01:38 11.45265 123.61381 34943 ft 465 kts 144°
2026-05-04 01:39 11.40015 123.65252 34941 ft 466 kts 144°
2026-05-04 01:39 11.34723 123.69151 33968 ft 478 kts 144°
2026-05-04 01:39 11.32057 123.71115 33002 ft 468 kts 144°
2026-05-04 01:40 11.29442 123.73042 32197 ft 459 kts 144°
2026-05-04 01:40 11.26886 123.74925 31432 ft 454 kts 143°
2026-05-04 01:40 11.24329 123.76807 30672 ft 456 kts 143°
2026-05-04 01:40 11.21713 123.78732 29914 ft 464 kts 144°
2026-05-04 01:41 11.18966 123.80455 29169 ft 471 kts 152°
2026-05-04 01:41 11.15932 123.81733 28433 ft 471 kts 161°
2026-05-04 01:41 11.12769 123.82497 27708 ft 465 kts 171°
2026-05-04 01:41 11.09556 123.82730 26979 ft 459 kts 180°
2026-05-04 01:42 11.06402 123.82433 26254 ft 454 kts 189°
2026-05-04 01:42 11.03342 123.81652 25526 ft 449 kts 195°
2026-05-04 01:42 11.00360 123.80798 24794 ft 445 kts 194°
2026-05-04 01:42 10.97394 123.79956 24063 ft 441 kts 194°
2026-05-04 01:43 10.94421 123.79120 23324 ft 438 kts 194°
2026-05-04 01:43 10.91496 123.78298 22597 ft 432 kts 194°
2026-05-04 01:43 10.88651 123.77501 21881 ft 426 kts 194°
2026-05-04 01:43 10.85777 123.76697 21173 ft 422 kts 194°
2026-05-04 01:44 10.82964 123.75911 20469 ft 419 kts 194°
2026-05-04 01:44 10.80153 123.75126 19761 ft 416 kts 193°
2026-05-04 01:44 10.77380 123.74397 17414 ft 405 kts 192°
2026-05-04 01:44 10.74690 123.73624 16707 ft 401 kts 193°
2026-05-04 01:45 10.71999 123.72868 16010 ft 398 kts 193°
2026-05-04 01:45 10.69345 123.72120 15313 ft 394 kts 193°
2026-05-04 01:45 10.64155 123.70670 13925 ft 384 kts 193°
2026-05-04 01:46 10.61569 123.69948 13312 ft 380 kts 193°
2026-05-04 01:46 10.59033 123.69241 12732 ft 377 kts 193°
2026-05-04 01:46 10.56514 123.68539 12153 ft 372 kts 194°
2026-05-04 01:46 10.54026 123.67846 11572 ft 371 kts 194°
2026-05-04 01:47 10.51554 123.67158 10986 ft 365 kts 194°
2026-05-04 01:47 10.49123 123.66481 10403 ft 363 kts 194°
2026-05-04 01:47 10.46722 123.65812 9848 ft 350 kts 194°
2026-05-04 01:47 10.44453 123.65179 9756 ft 322 kts 194°
2026-05-04 01:48 10.42369 123.64597 9749 ft 298 kts 194°
2026-05-04 01:48 10.40409 123.64052 9764 ft 286 kts 193°
2026-05-04 01:48 10.38470 123.63514 9762 ft 290 kts 193°
2026-05-04 01:48 10.36489 123.63042 9737 ft 287 kts 181°
2026-05-04 01:49 10.34542 123.63316 9837 ft 284 kts 155°
2026-05-04 01:49 10.32836 123.64410 9499 ft 297 kts 136°
2026-05-04 01:49 10.31321 123.65846 8978 ft 296 kts 135°
2026-05-04 01:49 10.29856 123.67256 8503 ft 289 kts 134°
2026-05-04 01:50 10.28422 123.68671 8019 ft 283 kts 133°
2026-05-04 01:50 10.27027 123.70067 7539 ft 278 kts 133°
2026-05-04 01:50 10.25679 123.71423 7071 ft 273 kts 133°
2026-05-04 01:50 10.24335 123.72782 6589 ft 268 kts 133°
2026-05-04 01:51 10.23032 123.74103 6116 ft 265 kts 133°
2026-05-04 01:51 10.21729 123.75424 5635 ft 261 kts 133°
2026-05-04 01:51 10.20462 123.76711 5158 ft 258 kts 132°
2026-05-04 01:51 10.19192 123.77999 4676 ft 256 kts 133°
2026-05-04 01:52 10.17938 123.79273 4209 ft 253 kts 132°
2026-05-04 01:52 10.16905 123.80646 3768 ft 245 kts 110°
2026-05-04 01:52 10.16684 123.82293 3463 ft 231 kts 78°
2026-05-04 01:52 10.17341 123.83727 3371 ft 217 kts 54°
2026-05-04 01:53 10.18238 123.84885 3290 ft 205 kts 53°
2026-05-04 01:53 10.19143 123.85974 3189 ft 192 kts 51°
2026-05-04 01:53 10.20008 123.86950 3000 ft 182 kts 50°
2026-05-04 01:53 10.20871 123.87884 2649 ft 183 kts 49°
2026-05-04 01:54 10.21728 123.88788 2438 ft 173 kts 47°
2026-05-04 01:54 10.22569 123.89660 2108 ft 168 kts 47°
2026-05-04 01:54 10.23355 123.90465 1808 ft 156 kts 47°
2026-05-04 01:54 10.24068 123.91189 1688 ft 135 kts 47°
2026-05-04 01:55 10.24740 123.91871 1444 ft 137 kts 46°
2026-05-04 01:55 10.25422 123.92561 1235 ft 140 kts 45°
2026-05-04 01:55 10.26116 123.93261 1023 ft 140 kts 46°
2026-05-04 01:55 10.26804 123.93954 812 ft 140 kts 45°
2026-05-04 01:56 10.27506 123.94659 614 ft 140 kts 46°
2026-05-04 01:56 10.28180 123.95355 454 ft 138 kts 47°
2026-05-04 01:56 10.28865 123.96051 303 ft 139 kts 43°
2026-05-04 01:56 10.29561 123.96741 135 ft 140 kts 46°
2026-05-04 01:57 10.30240 123.97425 40 ft 130 kts 44°
2026-05-04 01:57 10.30798 123.97987 39 ft 89 kts 45°
2026-05-04 01:57 10.31138 123.98327 39 ft 61 kts 45°
2026-05-04 01:57 10.31347 123.98537 39 ft 30 kts 45°
2026-05-04 01:58 10.31470 123.98662 39 ft 10 kts 41°
2026-05-04 01:58 10.31515 123.98677 39 ft 3 kts 343°
2026-05-04 01:58 10.31532 123.98665 39 ft 3 kts 313°
2026-05-04 01:58 10.31550 123.98644 39 ft 4 kts 311°
2026-05-04 01:59 10.31573 123.98620 39 ft 5 kts 314°
2026-05-04 01:59 10.31599 123.98592 39 ft 5 kts 314°
2026-05-04 01:59 10.31628 123.98563 39 ft 6 kts 315°
2026-05-04 01:59 10.31659 123.98532 39 ft 6 kts 314°
2026-05-04 02:00 10.31686 123.98500 39 ft 5 kts 299°
2026-05-04 02:00 10.31686 123.98473 39 ft 3 kts 245°
2026-05-04 02:00 10.31669 123.98452 39 ft 5 kts 227°
2026-05-04 02:00 10.31613 123.98395 39 ft 16 kts 224°
2026-05-04 02:01 10.31529 123.98310 39 ft 16 kts 225°
2026-05-04 02:01 10.31486 123.98250 39 ft 8 kts 268°
2026-05-04 02:01 10.31511 123.98206 39 ft 7 kts 312°
2026-05-04 02:01 10.31544 123.98169 39 ft 6 kts 314°
2026-05-04 02:02 10.31570 123.98135 39 ft 4 kts 288°
2026-05-04 02:02 10.31564 123.98109 39 ft 3 kts 238°
2026-05-04 02:02 10.31545 123.98086 39 ft 4 kts 229°
2026-05-04 02:02 10.31520 123.98058 39 ft 5 kts 226°
2026-05-04 02:03 10.31490 123.98028 39 ft 6 kts 225°
2026-05-04 02:03 10.31460 123.97997 39 ft 6 kts 225°
2026-05-04 02:03 10.31428 123.97964 39 ft 4 kts 225°
2026-05-04 02:03 10.31416 123.97945 39 ft 1 kts 260°
2026-05-04 02:04 10.31418 123.97935 39 ft 1 kts 287°
2026-05-04 02:04 10.31425 123.97922 39 ft 3 kts 306°
2026-05-04 02:04 10.31440 123.97905 39 ft 2 kts 313°
2026-05-04 02:04 10.31449 123.97896 39 ft 0 kts 314°
2026-05-04 02:05 10.31450 123.97894 39 ft 0 kts 314°